Weather in Mamonovka

Russia / Voronezh Oblast     50°23′35″N   40°30′18″E
temp.,
°C
wind,
m/s
gust,
m/s
humid.,
%
clouds,
%
prec.,
mm/h
press.,
hPa
HPBL,
m
24 june, thu
thu2400:00+23e49635 0.0 1018136
03:00+22ene410625 0.0 1018141
06:00+22e410675 0.0 1018175
09:00+28e57555 0.0 1018418
12:00+31e564454 0.0 10181318
15:00+32ene564041 0.0 10172317
18:00+30ne4760100 0.0 1016245
21:00+25ne466924 0.0 101790
25 june, fri
fri2500:00+23ene497067 0.0 1016150
03:00+22ene4107125 0.0 1016165
06:00+23ene497669 0.0 1016184
09:00+28ene58595 0.0 1015497
12:00+31e5649100 0.0 10151285
15:00+32ene5647100 0.0 10151973
18:00+30ne586128 0.0 1013403
21:00+25ene410738 0.0 1013169
26 june, sat
sat2600:00+23e48695 0.0 1013126
03:00+22ene367297 0.1 1014106
06:00+22ene49755 0.0 1013187
09:00+27e346065 0.0 1013380
12:00+31ene44495 0.0 10131066
15:00+32ene44435 0.0 10121457
18:00+30ene46575 0.0 1011358
21:00+25ne466911 0.0 101284
27 june, sun
sun2700:00+23ene497113 0.0 1011141
03:00+22ene497284 0.0 1011150
06:00+23ene5107594 0.0 1012197
09:00+29e695537 0.0 1011385
12:00+33e574474 0.0 10111056
15:00+34e684253 0.0 10101651
18:00+32ene5105428 0.0 1009435
21:00+27e513645 0.0 1009257
28 june, mon
mon2800:00+25ese616605 0.1 1009371
03:00+22ese51268100 0.1 1009207
06:00+22se48765 0.3 1009152
09:00+28se565571 0.3 1009430
12:00+32sse334577 0.0 10091063
15:00+33s244526 0.0 10081694
18:00+23sw51083100 2.3 1008354
21:00+20e5995100 5.7 1009183